Location: Ferintosh
(52.7647°N, 112.9692°W)
Time: 22:30:50
(UTC+00:00)

Vanguard 1 Rocket - Pass Details

Date: 27 May 2024
Orbit: 649 x 4221 km, 34.3° (Epoch: 13 June)

Event Time Altitude Azimuth Distance (km) Brightness Sun altitude
Rises 12:30:44 0° 186° (S) 8,396 12.0 8.6°
Reaches altitude 10° 12:40:20 10° 169° (S) 7,397 11.9 9.9°
Maximum altitude 12:53:03 17° 139° (SE) 6,400 12.1 11.7°
Drops below altitude 10° 13:03:51 10° 107° (ESE) 6,257 12.7 13.2°
Sets 13:10:29 0° 90° (E) 6,650 13.3 14.2°
